Juliana Airport, Saint Maartin

9:32 PM AST on July 24, 2016 (GMT -0400)
Princess Juliana International

Weather History for TNCM - February, 2013

Change the Weather History Date:

Thursday, February 21, 2013

  Actual Average Record
Temperature  
Mean Temperature 80 °F -  
Max Temperature 84 °F 82 °F 86 °F (2000)
Min Temperature 76 °F 72 °F 69 °F (2003)
Cooling Degree Days 15    
Growing Degree Days 30 (Base 50)    
Moisture  
Dew Point 67 °F    
Average Humidity 65    
Maximum Humidity 74    
Minimum Humidity 38    
Precipitation  
Precipitation 0.00 in 0.06 in - ()
Sea Level Pressure  
Sea Level Pressure 30.01 in    
Wind  
Wind Speed 10 mph ()    
Max Wind Speed 17 mph    
Max Gust Speed -    
Visibility 7.1 miles    
Events Rain    
Averages and records for this station are not official NWS values.
T = Trace of Precipitation, MM = Missing Value Source: Averaged Metar Reports

Daily Weather History Graph

Daily Weather History Graph

Search for Another Location

Airport or City:

Trip Planner

Search our weather history database for the weather conditions in past years. The results will help you decide how hot, cold, wet, or windy it might be!

Date:

Astronomy

Feb. 21, 2013 Rise Set
Actual Time 6:36 AM AST 6:16 PM AST
Civil Twilight 6:14 AM AST 6:38 PM AST
Nautical Twilight 5:48 AM AST 7:03 PM AST
Astronomical Twilight 5:23 AM AST 7:28 PM AST
Moon 2:47 PM AST (2/21) 3:15 AM AST (2/21)
Length of Visible Light 12h 23m
Length of Day
11h 39m
Waxing Gibbous, 83% of the Moon is Illuminated
Feb 21
Waxing Gibbous
Feb 25
Full
Mar 4
Last Quarter
Mar 11
New
Mar 19
First Quarter

Hourly Weather History & Observations

Time (AST) Temp. Heat Index Dew Point Humidity Pressure Visibility Wind Dir Wind Speed Gust Speed Precip Events Conditions
12:00 AM 77.0 °F - 68.0 °F 74% 30.01 in 6.2 mi East 11.5 mph - N/A   Scattered Clouds
1:00 AM 77.0 °F - 68.0 °F 74% 30.01 in 6.2 mi East 11.5 mph - N/A   Scattered Clouds
2:00 AM 77 °F - 68 °F 67% 30.00 in 16 mi ESE 11.5 mph - -   Partly Cloudy
2:00 AM 77.0 °F - 68.0 °F 74% - 6.2 mi ESE 11.5 mph - N/A   Scattered Clouds
3:00 AM 77.0 °F - 68.0 °F 74% 29.98 in 6.2 mi East 11.5 mph - N/A   Partly Cloudy
4:00 AM 77.0 °F - 68.0 °F 74% 29.98 in 6.2 mi ESE 11.5 mph - N/A   Scattered Clouds
5:00 AM 77 °F - 68 °F 66% 29.99 in 9 mi SE 10.4 mph - -   Mostly Cloudy
5:00 AM 77.0 °F - 68.0 °F 74% 29.98 in 6.2 mi SE 10.4 mph - N/A   Mostly Cloudy
6:00 AM 77.0 °F - 68.0 °F 74% 30.01 in 6.2 mi ESE 12.7 mph - N/A   Partly Cloudy
7:00 AM 77.0 °F - 68.0 °F 74% 30.04 in 6.2 mi ESE 11.5 mph - N/A   Partly Cloudy
8:00 AM 78 °F - 68 °F 65% 30.04 in 22 mi ESE 11.5 mph - -   Partly Cloudy
8:00 AM 78.8 °F - 68.0 °F 69% 30.04 in 6.2 mi ESE 10.4 mph - N/A   Partly Cloudy
9:00 AM 80.6 °F 83.2 °F 68.0 °F 65% 30.04 in 6.2 mi ESE 11.5 mph - N/A   Scattered Clouds
10:00 AM 80.6 °F 83.2 °F 68.0 °F 65% 30.06 in 6.2 mi East 11.5 mph - N/A   Mostly Cloudy
11:00 AM 81 °F - 67 °F 53% 30.07 in 16 mi East 17.3 mph - - Rain Light Rain Showers
11:00 AM 80.6 °F 83.2 °F 68.0 °F 65% 30.06 in 6.2 mi East 16.1 mph - N/A   Mostly Cloudy
12:00 PM 82.4 °F 84.6 °F 66.2 °F 58% 30.04 in 6.2 mi East 12.7 mph - N/A   Scattered Clouds
1:00 PM 82.4 °F 82.9 °F 60.8 °F 48% 30.01 in 6.2 mi ESE 13.8 mph - N/A   Partly Cloudy
2:00 PM 84 °F - 62 °F 38% 30.01 in 31 mi East 10.4 mph - -   Partly Cloudy
2:00 PM 84.2 °F 85.0 °F 62.6 °F 48% 30.01 in 6.2 mi East 10.4 mph - N/A   Partly Cloudy
3:00 PM 82.4 °F 83.4 °F 62.6 °F 51% 29.98 in 6.2 mi ESE 11.5 mph - N/A   Partly Cloudy
4:00 PM 80.6 °F 82.7 °F 66.2 °F 61% 29.98 in 6.2 mi ESE 11.5 mph - N/A   Partly Cloudy
5:00 PM 81 °F - 66 °F 52% 29.98 in 31 mi East 12.7 mph - -   Scattered Clouds
5:00 PM 80.6 °F 82.7 °F 66.2 °F 61% 29.98 in 6.2 mi East 12.7 mph - N/A   Partly Cloudy
6:00 PM 77.0 °F - 66.2 °F 69% 29.98 in 6.2 mi East 9.2 mph - N/A   Partly Cloudy
8:00 PM 77 °F - 67 °F 65% 30.01 in 25 mi East 10.4 mph - -   Scattered Clouds
8:00 PM 77.0 °F - 68.0 °F 74% 30.01 in 6.2 mi East 10.4 mph - N/A   Partly Cloudy
9:00 PM 77.0 °F - 68.0 °F 74% 30.01 in 6.2 mi East 10.4 mph - N/A   Partly Cloudy
10:00 PM 77.0 °F - 68.0 °F 74% 30.04 in 6.2 mi East 11.5 mph - N/A   Scattered Clouds
11:00 PM 77.0 °F - 68.0 °F 74% 30.04 in 6.2 mi East 10.4 mph - N/A   Partly Cloudy